Location: Katowice
(50.2611°N, 19.0242°E)
Time: 22:08:47
(UTC+02:00)

Explorer 7 - Pass Details

Date: 03 September 2019
Orbit: 485 x 680 km, 50.3° (Epoch: 23 September)

Event Time Altitude Azimuth Distance (km) Brightness Sun altitude
Rises 09:07:03 0° 273° (W) 3,033 10.1 28.3°
Reaches altitude 10° 09:09:27 10° 274° (W) 2,110 9.4 28.6°
Maximum altitude 09:14:21 90° 338° (NNW) 667 7.7 29.3°
Drops below altitude 10° 09:19:05 10° 96° (E) 2,031 11.0 30.0°
Sets 09:21:21 0° 96° (E) 2,911 11.5 30.3°
